Voltar ao catálogo

METEOR 2-5 DEB

AtivoPO
NORAD 39608·DEBRIS·🇷🇺 Russia

Lançado Oct 31, 1979 de Plesetsk Cosmodrome

Loading…

Próximas Passagens (próximas 24 horas)

TLE

ObsoletoSource: Space-Track

Época: Aug 26, 2026, 19:54 UTC

1 39608U 79095CK  26238.82922235  .00003663  00000-0  10885-2 0  9992
2 39608  81.1973  52.0759 0016129 164.2210 195.9484 14.43010361612866

Acompanhe METEOR 2-5 DEB em tempo real com AllMySat

Download on the App Store